Starlink 30208

operational
NORAD ID: 57415 Int'l Des: 2023-102 Owner: SPXS Country: US Constellation: starlink
LEOCIRCULAR

关于 Starlink 30208

正在加载描述...

实时位置

正在加载3D地球...

即将过境

高度历史

Altitude vs Time

uPlot chart will show altitude changes over time

两行轨道根数

1 57415U 23102M 25259.88072422 -.00000028 00000-0 12980-4 0 9991
2 57415 43.0033 113.0749 0001042 270.9679 89.1044 15.02529662120040
Epoch: Sep 16, 2025 • Age: 15 hours

当前状态

高度 561.5 km
速度 7.59 km/s
星下点 36.68°N, 10.82°W
发射日期 Jul 19, 2023
运行时间 2.1 years
类型 internet

技术详情

分类 Payload
质量 730.00 kg
干质量 700.00 kg
总质量 730.00 kg
长度 0.30 m
直径 4.10 m
跨度 29.00 m
形状 Box + pan
制造商 SPXS
平台类型 Starlink V2M
阶段状态 In Orbit
所有者/国家 SPXS/US

大型星座

Loading constellations...